Eagle, AK

7:27 AM AKDT on July 26, 2017 (GMT -0800)
Eagle

Weather History for PAEG - October, 2013

Change the Weather History Date:

Tuesday, October 22, 2013

  Actual Average (PABN) Record (PABN)
Temperature  
Mean Temperature 24 °F -  
Max Temperature 39 °F 20 °F 37 °F (2002)
Min Temperature 10 °F 11 °F -7 °F (1996)
Degree Days  
Heating Degree Days 42    
Moisture  
Dew Point 16 °F    
Average Humidity 75    
Maximum Humidity 92    
Minimum Humidity 51    
Precipitation  
Precipitation 0.00 in - - ()
Sea Level Pressure  
Sea Level Pressure 30.21 in    
Wind  
Wind Speed 2 mph (ESE)    
Max Wind Speed 10 mph    
Max Gust Speed 20 mph    
Visibility 10 miles    
Events      
Averages and records for this station are not official NWS values.
T = Trace of Precipitation, MM = Missing Value Source: NWS Daily Summary

Daily Weather History Graph

Daily Weather History Graph

Search for Another Location

Airport or City:

Trip Planner

Search our weather history database for the weather conditions in past years. The results will help you decide how hot, cold, wet, or windy it might be!

Date:

Astronomy

Oct. 22, 2013 Rise Set
Actual Time 8:40 AM AKDT 5:36 PM AKDT
Civil Twilight 7:48 AM AKDT 6:27 PM AKDT
Nautical Twilight 6:51 AM AKDT 7:24 PM AKDT
Astronomical Twilight 5:54 AM AKDT 8:21 PM AKDT
Moon 7:13 PM AKDT (10/22) 1:26 PM AKDT (10/22)
Length of Visible Light 10h 39m
Length of Day
8h 55m
Waning Gibbous, 86% of the Moon is Illuminated
Oct 22
Waning Gibbous
Oct 26
Last Quarter
Nov 3
New
Nov 9
First Quarter
Nov 17
Full

Hourly Weather History & Observations

Time (AKDT) Temp. Windchill Dew Point Humidity Pressure Visibility Wind Dir Wind Speed Gust Speed Precip Events Conditions
12:53 AM 16.0 °F - 14.0 °F 92% 30.17 in 10.0 mi Calm Calm - N/A   Clear
1:53 AM 14.0 °F - 12.0 °F 92% 30.18 in 10.0 mi Calm Calm - N/A   Clear
2:53 AM 14.0 °F 8.2 °F 10.9 °F 88% 30.19 in 10.0 mi South 3.5 mph - N/A   Clear
3:53 AM 12.9 °F - 10.0 °F 88% 30.20 in 10.0 mi Calm Calm - N/A   Clear
4:53 AM 10.9 °F - 9.0 °F 92% 30.21 in 10.0 mi Calm Calm - N/A   Clear
5:53 AM 12.0 °F - 8.1 °F 84% 30.22 in 10.0 mi Calm Calm - N/A   Clear
6:53 AM 10.9 °F - 8.1 °F 88% 30.23 in 10.0 mi Calm Calm - N/A   Clear
7:53 AM 10.9 °F - 8.1 °F 88% 30.23 in 10.0 mi Calm Calm - N/A   Clear
8:53 AM 12.0 °F - 8.1 °F 84% 30.23 in 10.0 mi Calm Calm - N/A   Clear
9:53 AM 18.0 °F - 15.1 °F 88% 30.24 in 10.0 mi Calm Calm - N/A   Clear
10:53 AM 28.0 °F 20.0 °F 21.9 °F 78% 30.23 in 10.0 mi ESE 8.1 mph - N/A   Clear
11:53 AM 30.0 °F 24.1 °F 21.9 °F 72% 30.23 in 10.0 mi East 5.8 mph - N/A   Overcast
12:53 PM 33.1 °F - 23.0 °F 66% 30.23 in 10.0 mi Calm Calm - N/A   Overcast
1:53 PM 34.0 °F 27.2 °F 21.9 °F 61% 30.23 in 10.0 mi ESE 8.1 mph - N/A   Overcast
2:53 PM 37.0 °F 31.0 °F 21.0 °F 52% 30.22 in 10.0 mi ESE 8.1 mph 19.6 mph N/A   Overcast
3:53 PM 37.9 °F 32.7 °F 21.0 °F 51% 30.21 in 10.0 mi Variable 6.9 mph - N/A   Clear
4:53 PM 36.0 °F 28.5 °F 21.0 °F 55% 30.22 in 10.0 mi East 10.4 mph - N/A   Clear
5:53 PM 34.0 °F 28.0 °F 21.0 °F 59% 30.22 in 10.0 mi East 6.9 mph - N/A   Mostly Cloudy
6:53 PM 34.0 °F 28.0 °F 21.0 °F 59% 30.21 in 10.0 mi SE 6.9 mph - N/A   Overcast
7:53 PM 34.0 °F 31.0 °F 21.0 °F 59% 30.20 in 10.0 mi Variable 3.5 mph - N/A   Scattered Clouds
8:53 PM 33.1 °F 27.7 °F 21.9 °F 64% 30.21 in 10.0 mi ESE 5.8 mph - N/A   Scattered Clouds
9:53 PM 28.0 °F - 19.9 °F 72% 30.20 in 10.0 mi Calm Calm - N/A   Clear
10:53 PM 21.9 °F - 16.0 °F 78% 30.20 in 10.0 mi Calm Calm - N/A   Clear
11:53 PM 19.0 °F - 15.1 °F 85% 30.20 in 10.0 mi Calm Calm - N/A   Clear